Terminal Aerodrome Forecast
Issued by NWS

Home | Current Version | Previous Version | Text Only | Print | Product List | Glossary On
Versions: 1 2 3 4 5 6 7 8 9 10 11 12 13 14 15 16 17 18 19 20 21 22 23 24 25 26 27 28 29 30 31 32 33 34 35 36 37 38 39 40 41 42 43 44 45 46 47 48 49 50
000
FTAK31 PANC 161137
TAFASN
TAF
PASN 161137Z 1612/1712 01008KT 6SM -SHRA SCT008 OVC015
     FM161400 36015KT P6SM VCSH SCT008 OVC015
     FM170000 36015G20KT P6SM -SHRA BKN025
     FM170600 35011KT P6SM OVC030=

USA.gov is the U.S. government's official web portal to all federal, state and local government web resources and services.